Tracking 28779 objects as of 15-Apr-2024
HD Live streaming from Space Station
objects crossing your sky now

FENGYUN 1C DEB

Track FENGYUN 1C DEB now!
10-day predictions


NORAD ID: 32192
Int'l Code: 1999-025CUN
Perigee: 830.1 km
Apogee: 1,100.5 km
Inclination: 98.7 °
Period: 104.2 minutes
Semi major axis: 7336 km
RCS: 0.0039 m2 (small)
Launch date: May 10, 1999
Source: People's Republic of China (PRC)
Launch site: Taiyaun Space Center, China (TSC)

Note: This is SATELLITE DEBRIS
Your satellite tracking list
Your tracking list is empty




NASA's NSSDC Master Catalog

Two Line Element Set (TLE):
1 32192U 99025CUN 24105.21262850  .00000688  00000-0  59920-3 0  9990
2 32192  98.7128  17.1623 0184323   8.2213 352.1892 13.81613812843202
Source of the keplerian elements: AFSPC